x

Grand Traverse Light, Mi (gtlm4) Weather Station

4:40am - Mon 26th Jan 2015 All times are CST. -6 hours from GMT.

  • Wind
    2mph, 5mph gusts
  • Air Temp 11°f
  • Sea Pressure 1016.9mb
  • Grand Traverse Light, Mi
  • Grand Traverse Light, Mi

More Historic Weather Station data

Upgrade to MSW Pro to gain access to the past 30 days of data for over 8000 Wavebouys and Weather Stations around the globe.

Join Pro

Comparision Forecast

View Surf forecast
   
Mon 01/26 4:40am 2 5 mph 1016.9mb 11f
4:30am 2 5 mph 1017.3mb 12f
4:20am 1 5 mph 1017.3mb 12f
4:10am  -  6 mph 1016.9mb 12f
4:00am  -  3 mph 1016.9mb 12f
3:40am 6 9 mph 1016.9mb 13f
3:30am 1 13 mph 1017.3mb 13f
3:20am 2 10 mph 1016.9mb 13f
3:10am 5 10 mph 1016.9mb 13f
3:00am 3 8 mph 1017.3mb 12f
2:40am 5 8 mph 1017.6mb 12f
2:30am 5 9 mph 1017.9mb 12f
2:20am 5 11 mph 1017.9mb 12f
2:10am 2 9 mph 1017.9mb 12f
2:00am 3 10 mph 1018.3mb 11f
1:40am 3 8 mph 1018.3mb 11f
1:30am 2 8 mph 1017.9mb 12f
1:20am 5 9 mph 1017.9mb 12f
1:10am 5 10 mph 1017.9mb 12f
1:00am 3 8 mph 1018.3mb 11f
12:40am 2 9 mph 1018.3mb 12f
12:30am 5 10 mph 1018.3mb 12f
12:20am 7 13 mph 1018.3mb 12f
12:10am 6 11 mph 1018.3mb 12f
12:00am 5 11 mph 1018.6mb 12f
Sun 01/25 11:40pm 6 14 mph 1018.6mb 12f
11:30pm 6 13 mph 1018.6mb 13f
11:20pm 6 15 mph 1018.3mb 12f
11:10pm 5 13 mph 1019mb 12f
11:00pm 3 10 mph 1019mb 12f
10:40pm 7 11 mph 1019mb 13f
10:30pm 5 9 mph 1019.3mb 13f
10:20pm 6 11 mph 1019.6mb 13f
10:10pm 3 9 mph 1019.6mb 13f
10:00pm 6 10 mph 1020mb 13f
9:40pm 7 14 mph 1020mb 13f
9:30pm 7 13 mph 1020.3mb 13f
9:20pm 6 10 mph 1020.3mb 12f
9:10pm 7 14 mph 1020.7mb 13f
9:00pm 8 14 mph 1020.3mb 13f
8:40pm 9 15 mph 1020.7mb 13f
8:30pm 9 15 mph 1020.7mb 13f
8:20pm 10 14 mph 1020.3mb 14f
8:10pm 10 16 mph 1020.3mb 14f
8:00pm 11 16 mph 1020.3mb 14f
7:40pm 13 18 mph 1020mb 15f
7:30pm 13 17 mph 1019.6mb 15f
7:20pm 13 18 mph 1019.6mb 16f
7:10pm 17 20 mph 1019.6mb 17f
7:00pm 16 20 mph 1019.3mb 16f
6:40pm 16 20 mph 1019.3mb 17f
6:30pm 16 20 mph 1019.3mb 16f
6:20pm 16 21 mph 1019.3mb 16f
6:10pm 16 20 mph 1019.3mb 16f
6:00pm 17 20 mph 1019.3mb 16f
5:40pm 16 20 mph 1019.3mb 16f
5:30pm 14 18 mph 1019.3mb 15f
5:20pm 14 17 mph 1019.3mb 16f
5:10pm 15 17 mph 1019mb 16f
5:00pm 14 17 mph 1019mb 15f
4:40pm 11 16 mph 1019mb 15f
4:30pm 13 18 mph 1019mb 15f
4:20pm 14 17 mph 1019mb 15f
4:10pm 15 16 mph 1019mb 15f
4:00pm 15 17 mph 1018.6mb 15f
3:40pm 14 18 mph 1018.6mb 15f
3:30pm 15 18 mph 1018.6mb 15f
3:20pm 15 18 mph 1018.6mb 15f
3:10pm 15 18 mph 1018.6mb 15f
3:00pm 14 18 mph 1018.6mb 15f
2:40pm 16 20 mph 1018.6mb 15f
2:30pm 14 17 mph 1018.6mb 15f
2:20pm 13 18 mph 1018.6mb 15f
2:10pm 14 18 mph 1018.3mb 15f
2:00pm 15 18 mph 1018.3mb 15f
1:40pm 16 20 mph 1018.6mb 16f
1:30pm 15 17 mph 1018.3mb 16f
1:20pm 15 18 mph 1018.6mb 15f
1:10pm 14 21 mph 1018.6mb 16f
1:00pm 16 21 mph 1018.3mb 16f
12:40pm 14 17 mph 1018.3mb 15f
12:30pm 14 17 mph 1018.3mb 15f
12:20pm 14 16 mph 1018.3mb 15f
12:10pm 14 18 mph 1018.3mb 15f
12:00pm 11 16 mph 1018.3mb 15f
11:40am 11 15 mph 1018.6mb 15f
11:30am 11 15 mph 1018.3mb 14f
11:20am 10 14 mph 1018.3mb 14f
11:10am 10 17 mph 1018.3mb 14f
11:00am 8 15 mph 1018.3mb 13f
10:40am 11 15 mph 1018.3mb 13f
10:30am 8 11 mph 1018.6mb 13f
10:20am 6 11 mph 1018.3mb 12f
10:10am 9 13 mph 1018.3mb 11f
10:00am 10 14 mph 1017.9mb 12f
9:40am 10 14 mph 1017.9mb 12f
9:30am 9 17 mph 1017.9mb 12f
9:20am 9 16 mph 1017.6mb 12f
9:10am 10 16 mph 1017.6mb 11f
9:00am 7 15 mph 1017.6mb 11f
8:40am 9 14 mph 1017.3mb 11f
8:30am 9 14 mph 1017.3mb 11f
8:20am 11 16 mph 1016.9mb 10f
8:10am 10 16 mph 1016.9mb 10f
8:00am 8 16 mph 1016.9mb 10f
7:40am 13 17 mph 1016.6mb 11f
7:30am 11 18 mph 1016.3mb 11f
7:20am 11 18 mph 1015.9mb 11f
7:10am 18 23 mph 1015.9mb 13f
7:00am 20 25 mph 1015.9mb 13f
6:40am 22 26 mph 1015.6mb 12f
6:30am 23 28 mph 1015.6mb 12f
6:20am 24 31 mph 1015.2mb 13f
6:10am 26 30 mph 1015.2mb 12f
6:00am 26 31 mph 1015.2mb 13f
5:40am 28 32 mph 1014.6mb 13f
5:30am 29 32 mph 1014.6mb 13f
5:20am 28 32 mph 1014.2mb 13f
5:10am 30 34 mph 1013.9mb 14f
5:00am 29 34 mph 1013.9mb 14f
4:57am 29 30 mph 1013.9mb 14f
4:50am 29 32 mph 1013.9mb 14f
4:40am 29 34 mph 1013.5mb 15f
4:30am 25 31 mph 1013.5mb 15f
4:20am 25 31 mph 1013.9mb 15f
4:10am 28 31 mph 1013.5mb 15f
4:00am 26 31 mph 1013.5mb 15f
3:56am 26 30 mph 1013.5mb 15f
3:50am 24 29 mph 1013.5mb 15f
3:40am 24 29 mph 1013.5mb 15f
3:30am 23 29 mph 1013.2mb 15f
3:20am 25 30 mph 1012.9mb 15f
3:10am 24 30 mph 1012.9mb 16f
3:00am 25 32 mph 1012.9mb 17f
2:55am 23 32 mph 1012.5mb 17f
2:50am 22 28 mph 1012.5mb 17f
2:40am 24 26 mph 1012.5mb 17f
2:30am 23 28 mph 1012.5mb 17f
2:20am 22 26 mph 1012.2mb 18f
2:10am 21 24 mph 1012.2mb 18f
2:00am 22 26 mph 1011.9mb 19f
1:50am 20 24 mph 1011.9mb 19f
1:40am 17 28 mph 1011.5mb 19f
1:30am 15 22 mph 1011.2mb 19f
1:20am 18 24 mph 1010.8mb 19f
1:10am 20 25 mph 1010.5mb 19f
1:00am 22 25 mph 1010.5mb 20f
12:50am 21 25 mph 1010.5mb 20f
12:40am 21 26 mph 1010.5mb 20f
12:30am 21 24 mph 1010.5mb 20f
12:20am 20 25 mph 1010.2mb 20f
12:10am 21 25 mph 1010.2mb 20f
12:00am 23 28 mph 1010.2mb 20f
Sat 01/24 11:50pm 21 24 mph 1009.8mb 20f
11:40pm 20 24 mph 1009.8mb 21f
11:30pm 17 23 mph 1009.5mb 21f
11:20pm 18 22 mph 1009.5mb 21f
11:10pm 18 23 mph 1009.1mb 21f
11:00pm 17 23 mph 1009.1mb 22f
10:50pm 17 20 mph 1009.1mb 22f
10:40pm 15 22 mph 1009.1mb 22f
10:30pm 18 22 mph 1009.1mb 22f
10:20pm 18 24 mph 1008.5mb 22f
10:10pm 22 25 mph 1008.5mb 22f
10:00pm 21 26 mph 1008.1mb 22f
9:50pm 22 28 mph 1007.8mb 23f
9:40pm 24 29 mph 1007.5mb 23f
9:30pm 21 31 mph 1007.5mb 23f
9:20pm 22 29 mph 1007.8mb 23f
9:10pm 21 29 mph 1007.8mb 24f
9:06pm 23 29 mph 1007.5mb 24f
9:00pm 22 28 mph 1007.8mb 24f
8:50pm 22 29 mph 1007.5mb 24f
8:40pm 24 28 mph 1007.5mb 24f
8:30pm 17 24 mph 1007.5mb 24f
8:20pm 21 28 mph 1007.5mb 24f
8:10pm 21 26 mph 1007.1mb 24f
8:00pm 22 28 mph 1007.1mb 24f
7:50pm 23 28 mph 1007.1mb 24f
7:40pm 23 31 mph 1006.8mb 24f
7:30pm 26 32 mph 1006.8mb 24f
7:20pm 24 31 mph 1006.8mb 24f
7:10pm 26 31 mph 1006.4mb 25f
7:00pm 28 32 mph 1006.4mb 25f
6:59pm 26 32 mph 1006.4mb 25f
6:50pm 25 32 mph 1006.1mb 25f
6:40pm 24 32 mph 1006.4mb 26f
6:30pm 26 29 mph 1006.1mb 27f
6:20pm 25 31 mph 1006.1mb 27f
6:10pm 28 31 mph 1006.1mb 27f
6:00pm 26 30 mph 1006.1mb 27f
5:50pm 24 30 mph 1005.8mb 28f
5:40pm 24 28 mph 1005.4mb 29f
5:30pm 23 26 mph 1005.1mb 29f
5:20pm 24 28 mph 1005.1mb 29f
5:10pm 23 29 mph 1004.7mb 29f
5:00pm 24 29 mph 1004.4mb 30f
4:52pm 23 29 mph 1004.1mb 30f
4:50pm 22 28 mph 1004.4mb 30f
4:40pm 23 26 mph 1004.1mb 30f
4:30pm 23 25 mph 1003.7mb 30f
4:20pm 22 25 mph 1003.4mb 30f
4:10pm 23 26 mph 1003.4mb 31f
4:00pm 23 25 mph 1002.7mb 31f
3:50pm 23 25 mph 1002.7mb 31f
3:40pm 22 23 mph 1002.7mb 32f
3:30pm 20 22 mph 1002.4mb 32f
3:20pm 18 23 mph 1002.4mb 32f
3:10pm 18 22 mph 1002mb 32f
3:00pm 15 20 mph 1002mb 32f
2:50pm 17 21 mph 1001.7mb 32f
2:40pm 17 20 mph 1001.7mb 33f
2:30pm 17 20 mph 1001.7mb 33f
2:20pm 16 18 mph 1001.4mb 33f
2:10pm 15 20 mph 1001.4mb 33f
2:00pm 18 20 mph 1001.4mb 33f
1:50pm 15 18 mph 1001.4mb 34f
1:40pm 14 17 mph 1001mb 34f
1:30pm 14 16 mph 1001mb 34f
1:20pm 14 17 mph 1001mb 34f
1:10pm 10 13 mph 1000.7mb 35f
1:00pm 10 13 mph 1001mb 35f
12:50pm 11 14 mph 1001mb 35f
12:40pm 9 11 mph 1001mb 35f
12:30pm 9 10 mph 1001mb 35f
12:20pm 9 11 mph 1001mb 35f
12:10pm 9 11 mph 1001mb 34f
12:00pm 10 11 mph 1001.4mb 34f
11:50am 9 11 mph 1001.4mb 34f
11:40am 10 14 mph 1001.4mb 33f
11:30am 10 14 mph 1001.4mb 33f
11:20am 14 18 mph 1001.7mb 33f
11:10am 18 21 mph 1001.7mb 35f
11:00am 13 15 mph 1001.7mb 35f
10:50am 11 14 mph 1001.7mb 35f
10:40am 13 17 mph 1001.7mb 35f
10:30am 15 18 mph 1001.7mb 35f
10:20am 16 18 mph 1001.7mb 35f
10:10am 16 17 mph 1001.4mb 35f
10:00am 15 17 mph 1001.7mb 35f
9:50am 15 17 mph 1001.7mb 35f
9:40am 15 17 mph 1001.7mb 35f
9:30am 14 16 mph 1001.7mb 35f
9:20am 14 16 mph 1001.7mb 35f
9:10am 14 17 mph 1001.7mb 35f
9:00am 15 18 mph 1002mb 35f
8:50am 15 17 mph 1001.7mb 35f
8:40am 15 20 mph 1002mb 35f
8:30am 17 20 mph 1002mb 35f
8:20am 16 17 mph 1002mb 35f
8:10am 15 18 mph 1002mb 35f
8:00am 16 18 mph 1002mb 35f
7:50am 13 16 mph 1002.4mb 35f
7:40am 15 18 mph 1002.4mb 35f
7:30am 16 17 mph 1002.4mb 35f
7:20am 15 17 mph 1002.4mb 34f
7:10am 13 16 mph 1002.4mb 34f
7:00am 14 15 mph 1002.7mb 34f
6:50am 14 16 mph 1002.7mb 34f
6:40am 15 16 mph 1002.4mb 34f
6:30am 14 17 mph 1002.4mb 34f
6:20am 14 15 mph 1002.4mb 34f
6:10am 14 16 mph 1002.4mb 34f
6:00am 13 15 mph 1002.4mb 34f
5:50am 15 17 mph 1002.4mb 34f
5:40am 11 15 mph 1002.4mb 34f
5:30am 14 15 mph 1002.4mb 34f
5:20am 13 16 mph 1002.4mb 34f
5:10am 14 15 mph 1002.7mb 34f
5:00am 13 16 mph 1002.7mb 34f
4:50am 14 16 mph 1002.7mb 34f
4:40am 14 16 mph 1002.7mb 34f
4:30am 15 18 mph 1002.7mb 34f
4:20am 15 17 mph 1003mb 34f
4:10am 15 17 mph 1003mb 34f
4:00am 14 16 mph 1003mb 33f
3:50am 14 18 mph 1003mb 33f
3:40am 16 18 mph 1003mb 33f
3:30am 14 16 mph 1003.4mb 33f
3:20am 11 15 mph 1003mb 33f
3:10am 13 16 mph 1003.4mb 33f
3:00am 17 20 mph 1003.7mb 33f
2:50am 15 17 mph 1003.7mb 33f
2:40am 15 20 mph 1003.7mb 33f
2:30am 16 18 mph 1004.1mb 33f
2:20am 16 20 mph 1004.1mb 33f
2:10am 16 18 mph 1004.1mb 32f
2:00am 15 18 mph 1004.4mb 32f
1:50am 17 20 mph 1004.4mb 32f
1:40am 18 20 mph 1004.1mb 32f
1:30am 17 22 mph 1004.4mb 32f
1:20am 22 25 mph 1004.4mb 32f
1:10am 23 25 mph 1004.4mb 33f
1:00am 21 24 mph 1004.4mb 33f
12:50am 22 24 mph 1004.4mb 33f
12:40am 24 26 mph 1004.4mb 34f
12:30am 20 22 mph 1004.4mb 33f
12:20am 18 22 mph 1004.7mb 33f
12:10am 20 22 mph 1004.7mb 33f
12:00am 20 22 mph 1004.7mb 33f
Fri 01/23 11:50pm 18 22 mph 1005.1mb 33f
11:40pm 18 23 mph 1005.1mb 33f
11:30pm 20 24 mph 1005.1mb 33f
11:20pm 21 25 mph 1005.1mb 33f
11:10pm 21 23 mph 1005.4mb 34f
11:00pm 22 24 mph 1005.4mb 34f
10:50pm 22 25 mph 1005.8mb 34f
10:40pm 23 26 mph 1005.8mb 34f
10:30pm 23 28 mph 1006.1mb 34f
10:20pm 24 29 mph 1006.1mb 34f
10:10pm 24 29 mph 1006.1mb 34f
10:00pm 25 29 mph 1006.4mb 34f
9:58pm 25 29 mph 1006.4mb 34f
9:50pm 25 29 mph 1006.4mb 34f
9:40pm 25 29 mph 1006.8mb 34f
9:30pm 26 30 mph 1006.8mb 34f
9:20pm 26 31 mph 1006.8mb 34f
9:10pm 28 31 mph 1007.1mb 34f
9:00pm 28 31 mph 1007.1mb 34f
8:52pm 25 30 mph 1007.1mb 33f
8:50pm 24 29 mph 1007.5mb 33f
8:40pm 23 28 mph 1007.5mb 33f
8:30pm 25 30 mph 1007.8mb 33f
8:20pm 26 30 mph 1007.8mb 33f
8:10pm 22 28 mph 1008.1mb 33f
8:00pm 23 28 mph 1008.1mb 33f
7:50pm 24 30 mph 1008.5mb 33f
7:40pm 25 30 mph 1008.5mb 33f
7:31pm 24 30 mph 1008.5mb 33f
7:30pm 24 31 mph 1008.5mb 33f
7:20pm 23 33 mph 1008.8mb 33f
7:10pm 24 32 mph 1008.8mb 33f
7:00pm 24 33 mph 1008.8mb 33f
6:50pm 25 32 mph 1009.1mb 33f
6:40pm 23 30 mph 1009.5mb 33f
6:30pm 24 29 mph 1009.5mb 32f
6:20pm 20 25 mph 1009.5mb 32f
6:10pm 16 22 mph 1009.5mb 32f
6:00pm 16 23 mph 1009.5mb 32f
5:50pm 18 24 mph 1009.5mb 31f
5:40pm 17 22 mph 1009.5mb 31f
5:30pm 11 24 mph 1009.5mb 31f
5:20pm 17 24 mph 1009.5mb 31f
5:10pm 10 23 mph 1009.1mb 31f
5:00pm 13 22 mph 1009.1mb 31f
4:50pm 15 24 mph 1009.1mb 31f
4:40pm 15 22 mph 1009.1mb 31f
4:30pm 16 22 mph 1009.5mb 31f
4:20pm 16 25 mph 1009.5mb 31f
4:10pm 14 26 mph 1009.8mb 31f
4:00pm 16 22 mph 1009.8mb 31f
3:50pm 16 28 mph 1009.8mb 31f
3:40pm 20 23 mph 1009.8mb 31f
3:30pm 20 26 mph 1010.2mb 31f
3:20pm 15 26 mph 1010.2mb 31f
3:10pm 13 26 mph 1010.2mb 31f
3:00pm 16 28 mph 1010.5mb 31f
2:50pm 17 30 mph 1010.5mb 32f
2:40pm 23 36 mph 1010.5mb 32f
2:33pm 20 30 mph 1010.5mb 31f
2:30pm 21 30 mph 1010.8mb 31f
2:20pm 21 38 mph 1010.8mb 31f
2:10pm 25 37 mph 1010.5mb 31f
2:00pm 25 34 mph 1011.2mb 31f
1:50pm 24 36 mph 1011.2mb 31f
1:41pm 28
mph
1011.2mb 32f
1:40pm 28 38 mph 1011.5mb 32f
1:30pm 25 37 mph 1011.5mb 32f
1:29pm 30
mph
1011.5mb 32f
1:20pm 26 39 mph 1011.5mb 32f
1:10pm 25 39 mph 1011.9mb 32f
1:00pm 30 40 mph 1011.5mb 32f
12:50pm 32 41 mph 1011.9mb 32f
12:40pm 25 38 mph 1012.2mb 32f
12:30pm 29 40 mph 1012.2mb 32f
12:27pm 22 40 mph 1012.2mb 32f
12:20pm 28 38 mph 1012.5mb 32f
12:10pm 31 38 mph 1012.5mb 32f
12:00pm 28 36 mph 1012.9mb 32f
11:56am 25 30 mph 1012.9mb 32f
11:50am 25 38 mph 1013.2mb 32f
11:40am 30 36 mph 1013.2mb 32f
11:30am 26 32 mph 1013.5mb 32f
11:20am 21 33 mph 1013.9mb 32f
11:10am 21 30 mph 1013.9mb 32f
11:00am 21 29 mph 1014.2mb 32f
10:55am 21 29 mph 1014.2mb 32f
10:50am 20 30 mph 1014.2mb 33f
10:40am 22 32 mph 1014.6mb 33f
10:30am 21 36 mph 1014.6mb 32f
10:20am 22 33 mph 1014.9mb 32f
10:10am 22 30 mph 1014.9mb 32f
10:00am 22 30 mph 1014.9mb 32f
9:50am 21 33 mph 1014.9mb 31f
9:45am 18 29 mph 1014.9mb 31f
9:40am 15 29 mph 1015.2mb 31f
9:30am 22 33 mph 1015.2mb 31f
9:20am 21 36 mph 1014.9mb 31f
9:10am 20 30 mph 1014.9mb 31f
9:00am 25 34 mph 1014.9mb 31f
8:50am 22 31 mph 1014.9mb 31f
8:40am 22 34 mph 1014.9mb 31f
8:31am 22 29 mph 1014.9mb 31f
8:30am 22 31 mph 1014.9mb 31f
8:20am 18 34 mph 1015.2mb 31f
8:10am 22 34 mph 1015.2mb 31f
8:00am 20 31 mph 1015.6mb 31f
7:50am 18 29 mph 1015.6mb 31f
7:40am 22 30 mph 1015.6mb 31f
7:30am 23 32 mph 1015.9mb 31f
7:27am 18 32 mph 1015.9mb 31f
7:20am 20 30 mph 1015.9mb 31f
7:10am 22 37 mph 1015.9mb 31f
7:00am 23 33 mph 1015.9mb 31f
6:50am 25 38 mph 1016.6mb 31f
6:40am 28 37 mph 1016.3mb 31f
6:30am 28 38 mph 1016.6mb 30f
6:26am 26 29 mph 1016.6mb 31f
6:20am 24 41 mph 1016.9mb 31f
6:10am 29 39 mph 1016.6mb 31f
6:00am 34 41 mph 1016.9mb 30f
5:50am 26 43 mph 1017.3mb 31f
5:40am 30 36 mph 1017.6mb 30f
5:30am 28 43 mph 1017.6mb 30f
5:25am 25 43 mph 1017.3mb 30f
5:20am 29 38 mph 1017.6mb 30f
5:10am 31 38 mph 1017.6mb 30f
5:00am 34 41 mph 1017.9mb 30f
4:50am 31 43 mph 1017.9mb 30f
4:40am 31 43 mph 1018.3mb 30f
4:30am 31 40 mph 1018.3mb 30f
4:20am 34 39 mph 1018.3mb 30f
4:10am 29 43 mph 1018.6mb 30f
4:00am 37 44 mph 1018.6mb 30f
3:50am 33 39 mph 1018.6mb 30f
3:40am 24 36 mph 1019mb 31f
3:30am 21 31 mph 1019mb 31f
3:20am 20 31 mph 1019.3mb 31f
3:15am 23 29 mph 1019mb 31f
3:10am 24 37 mph 1019.3mb 31f
3:00am 23 31 mph 1019.3mb 31f
2:50am 22 37 mph 1019.6mb 31f
2:40am 21 30 mph 1020mb 30f
2:30am 21 30 mph 1020mb 30f
2:20am 15 32 mph 1020mb 30f
2:14am 21 29 mph 1020mb 29f
2:10am 16 23 mph 1020.3mb 29f
2:00am 14 21 mph 1020.3mb 29f
1:50am 11 22 mph 1020.3mb 29f
1:40am 13 18 mph 1020.7mb 29f
1:30am 11 22 mph 1020.7mb 29f
1:20am 9 22 mph 1020.7mb 29f
1:10am 10 22 mph 1021mb 29f
1:00am 14 23 mph 1021mb 29f
12:50am 9 16 mph 1021.3mb 29f
12:40am 8 14 mph 1021.7mb 28f
12:30am 6 17 mph 1021.7mb 29f
12:20am 7 18 mph 1021.7mb 29f
12:10am 15 26 mph 1021.7mb 30f
12:00am 13 22 mph 1021.7mb 30f
Thu 01/22 11:50pm 13 22 mph 1022.4mb 29f
11:40pm 14 24 mph 1022.4mb 29f
11:30pm 13 26 mph 1022.4mb 29f
11:20pm 11 24 mph 1022.7mb 28f
11:10pm 14 23 mph 1023mb 28f
11:00pm 14 22 mph 1023mb 28f
10:50pm 13 23 mph 1023mb 28f
10:40pm 15 25 mph 1023.4mb 28f
10:30pm 20 28 mph 1023.4mb 28f
10:20pm 16 26 mph 1023.7mb 28f
10:10pm 17 24 mph 1023.7mb 28f
10:00pm 16 25 mph 1023.7mb 28f
9:50pm 17 26 mph 1024mb 28f
9:40pm 15 23 mph 1024mb 27f
9:30pm 15 22 mph 1024.4mb 27f
9:20pm 13 21 mph 1024.4mb 27f
9:10pm 10 18 mph 1024.4mb 26f
9:00pm 10 21 mph 1024.7mb 26f
8:50pm 9 16 mph 1024.7mb 26f
8:40pm 9 16 mph 1024.7mb 26f
8:30pm 8 14 mph 1025.1mb 26f
8:20pm 5 14 mph 1025.1mb 26f
8:10pm 7 15 mph 1025.1mb 26f
8:00pm 7 14 mph 1025.1mb 26f
7:50pm 8 13 mph 1025.4mb 26f
7:40pm 6 14 mph 1025.4mb 26f
7:30pm 6 11 mph 1025.7mb 26f
7:20pm 6 16 mph 1026.1mb 26f
7:10pm 7 11 mph 1026.1mb 26f
7:00pm 7 14 mph 1026.4mb 27f
6:50pm 7 11 mph 1026.4mb 26f
6:40pm 8 11 mph 1026.4mb 27f
6:30pm 7 14 mph 1026.8mb 27f
6:20pm 6 11 mph 1026.8mb 27f
6:10pm 8 13 mph 1027.1mb 28f
6:00pm 8 13 mph 1027.1mb 28f
5:50pm 8 15 mph 1027.1mb 28f
5:40pm 8 21 mph 1027.1mb 29f
5:30pm 10 18 mph 1027.1mb 28f
5:20pm 14 21 mph 1027.1mb 28f
5:10pm 14 23 mph 1027.1mb 29f
5:00pm 17 23 mph 1027.4mb 29f
4:50pm 16 24 mph 1027.4mb 29f
4:40pm 20 25 mph 1027.4mb 29f
4:30pm 20 24 mph 1027.4mb 29f
4:20pm 18 22 mph 1027.4mb 29f
4:10pm 21 23 mph 1027.4mb 29f
4:00pm 21 25 mph 1027.4mb 29f
3:50pm 18 21 mph 1027.4mb 30f
3:40pm 16 21 mph 1027.4mb 29f
3:30pm 17 21 mph 1027.8mb 30f
3:20pm 17 21 mph 1027.8mb 30f
3:10pm 16 18 mph 1027.4mb 30f
3:00pm 15 18 mph 1027.4mb 30f
2:50pm 16 18 mph 1027.8mb 30f
2:40pm 14 20 mph 1027.8mb 29f
2:30pm 16 20 mph 1027.4mb 30f
2:20pm 15 18 mph 1027.8mb 30f
2:10pm 14 18 mph 1027.8mb 31f
2:00pm 15 20 mph 1027.8mb 30f
1:50pm 15 20 mph 1028.1mb 30f
1:40pm 16 20 mph 1027.8mb 31f
1:30pm 14 20 mph 1027.8mb 30f
1:20pm 15 20 mph 1027.8mb 31f
1:10pm 16 20 mph 1027.8mb 30f
1:00pm 16 20 mph 1027.8mb 31f
12:50pm 14 20 mph 1027.8mb 30f
12:40pm 17 21 mph 1027.8mb 30f
12:30pm 16 20 mph 1027.8mb 30f
12:20pm 16 21 mph 1028.1mb 31f
12:10pm 13 18 mph 1027.8mb 30f
12:00pm 16 21 mph 1027.8mb 30f
11:50am 14 18 mph 1028.1mb 29f
11:40am 15 16 mph 1028.1mb 29f